Location: Marsån
(66.4167°N, 22.2833°E)
Time: 11:20:17
(UTC+00:00)

Resurs 01 Rocket - Pass Details

Date: 24 February 2024
Orbit: 632 x 640 km, 97.8° (Epoch: 15 April)

Event Time Altitude Azimuth Distance (km) Brightness Sun altitude
Exits shadow 19:04:47 - 199° (SSW) 2,299 4.4 -22.2°
Reaches altitude 10° 19:05:31 10° 203° (SSW) 2,027 4.1 -22.2°
Maximum altitude 19:09:29 32° 266° (W) 1,103 3.3 -22.6°
Drops below altitude 10° 19:13:29 10° 331° (NNW) 2,035 5.0 -22.9°
Sets 19:15:54 0° 341° (NNW) 2,947 5.8 -23.1°
